Weather History for Milford, UT

Change the Weather History Date:

Monday, January 13, 2014

  Actual Average Record
Temperature  
Mean Temperature 31 °F -  
Max Temperature 46 °F 38 °F 57 °F (2003)
Min Temperature 16 °F 18 °F -11 °F (2007)
Degree Days  
Heating Degree Days 34    
Moisture  
Dew Point 20 °F    
Average Humidity 66    
Maximum Humidity 88    
Minimum Humidity 25    
Precipitation  
Precipitation 0.00 in - - ()
Sea Level Pressure  
Sea Level Pressure 30.50 in    
Wind  
Wind Speed 5 mph (SSW)    
Max Wind Speed 12 mph    
Max Gust Speed -    
Visibility 10 miles    
Events      
Averages and records for this station are not official NWS values.
T = Trace of Precipitation, MM = Missing Value Source: NWS Daily Summary

Daily Weather History Graph

Daily Weather History Graph

Search for Another Location

Airport:

Trip Planner

Search our weather history database for the weather conditions in past years. The results will help you decide how hot, cold, wet, or windy it might be!

Date:

Astronomy

Jan. 13, 2014 Rise Set
Actual Time 7:48 AM MST 5:33 PM MST
Civil Twilight 7:19 AM MST 6:02 PM MST
Nautical Twilight 6:46 AM MST 6:35 PM MST
Astronomical Twilight 6:14 AM MST 7:07 PM MST
Moon 3:51 PM MST (1/13) 5:40 AM MST (1/13)
Length of Visible Light 10h 43m
Length of Day
9h 44m
Waxing Gibbous, 95% of the Moon is Illuminated
Jan 13
Waxing Gibbous
Jan 15
Full
Jan 23
Last Quarter
Jan 30
New
Feb 6
First Quarter

Hourly Weather History & Observations

Time (MST) Temp. Windchill Dew Point Humidity Pressure Visibility Wind Dir Wind Speed Gust Speed Precip Events Conditions
12:52 AM 23.0 °F 18.4 °F 17.1 °F 78% 30.42 in 10.0 mi SE 3.5 mph - N/A   Clear
1:52 AM 21.9 °F - 16.0 °F 78% 30.42 in 10.0 mi Calm Calm - N/A   Clear
2:52 AM 21.0 °F 12.4 °F 16.0 °F 81% 30.44 in 10.0 mi WSW 6.9 mph - N/A   Clear
3:52 AM 19.9 °F 13.4 °F 16.0 °F 85% 30.45 in 10.0 mi South 4.6 mph - N/A   Clear
4:52 AM 19.9 °F 11.1 °F 15.1 °F 81% 30.48 in 10.0 mi SW 6.9 mph - N/A   Clear
5:52 AM 18.0 °F 9.8 °F 15.1 °F 88% 30.54 in 10.0 mi South 5.8 mph - N/A   Clear
6:52 AM 19.0 °F 12.3 °F 15.1 °F 85% 30.56 in 10.0 mi SSW 4.6 mph - N/A   Clear
7:52 AM 18.0 °F 9.8 °F 14.0 °F 84% 30.57 in 10.0 mi SW 5.8 mph - N/A   Clear
8:52 AM 19.9 °F 9.3 °F 16.0 °F 85% 30.60 in 10.0 mi South 9.2 mph - N/A   Clear
9:52 AM 27.0 °F 18.0 °F 19.0 °F 72% 30.58 in 10.0 mi South 9.2 mph - N/A   Clear
10:52 AM 33.1 °F 24.9 °F 21.9 °F 64% 30.58 in 10.0 mi South 10.4 mph - N/A   Clear
11:52 AM 37.0 °F 29.3 °F 23.0 °F 57% 30.54 in 10.0 mi South 11.5 mph - N/A   Clear
12:52 PM 41.0 °F 34.7 °F 21.9 °F 47% 30.49 in 10.0 mi South 10.4 mph - N/A   Clear
1:52 PM 45.0 °F 39.3 °F 21.0 °F 39% 30.45 in 10.0 mi SSW 11.5 mph - N/A   Clear
2:52 PM 46.0 °F 42.5 °F 21.9 °F 39% 30.44 in 10.0 mi SSW 6.9 mph - N/A   Clear
3:52 PM 46.0 °F 42.5 °F 23.0 °F 40% 30.44 in 10.0 mi SSW 6.9 mph - N/A   Clear
4:52 PM 44.1 °F 41.5 °F 25.0 °F 47% 30.44 in 10.0 mi South 4.6 mph - N/A   Clear
5:52 PM 37.0 °F 33.3 °F 24.1 °F 59% 30.47 in 10.0 mi SSW 4.6 mph - N/A   Clear
6:52 PM 32.0 °F 24.2 °F 23.0 °F 69% 30.49 in 10.0 mi West 9.2 mph - N/A   Clear
7:52 PM 32.0 °F 25.6 °F 21.9 °F 66% 30.51 in 10.0 mi West 6.9 mph - N/A   Clear
8:52 PM 28.9 °F 23.9 °F 21.9 °F 75% 30.53 in 10.0 mi WSW 4.6 mph - N/A   Clear
9:52 PM 27.0 °F 23.0 °F 21.0 °F 78% 30.52 in 10.0 mi West 3.5 mph - N/A   Clear
10:52 PM 27.0 °F 23.0 °F 21.0 °F 78% 30.51 in 10.0 mi ESE 3.5 mph - N/A   Clear
11:52 PM 26.1 °F 20.5 °F 19.0 °F 75% 30.51 in 10.0 mi WNW 4.6 mph - N/A   Clear